period_start,C,m1,H,J0,J1,J2,J3,J4,J5,JA,JB,JC,JD,JJ,JK,JN,#
2015-10-08 00:01:44,0.02,0.88,0.00,20.39,25.90,29.54,14.91,47.92,1025.88,2042.07,3192.08,3064.06,3322.99,599.91,606.81,15.00,0000 0000 0000 0000 000000
2015-10-08 00:06:45,0.01,0.88,0.00,20.38,25.90,29.51,14.82,47.98,1025.89,2042.04,3191.93,3063.99,3322.42,599.68,606.45,15.05,0000 0000 0000 0000 000000
2015-10-08 00:11:46,0.02,0.88,0.00,20.37,25.90,29.55,14.86,47.79,1025.89,2042.03,3191.31,3063.80,3322.00,599.85,606.71,15.10,0000 0000 0000 0000 000000
2015-10-08 00:16:48,0.01,0.88,0.00,20.39,25.92,29.52,14.80,47.84,1025.89,2042.03,3191.00,3063.11,3321.94,599.82,606.66,15.15,0000 0000 0000 0000 000000
2015-10-08 00:21:49,0.02,0.88,0.00,20.41,25.92,29.52,14.90,47.87,1025.89,2042.01,3190.55,3063.00,3321.20,600.15,607.00,15.20,0000 0000 0000 0000 000000
2015-10-08 00:26:50,0.02,0.88,0.00,20.44,25.92,29.53,14.84,47.85,1025.90,2042.02,3190.01,3062.64,3320.99,600.13,606.71,15.25,0000 0000 0000 0000 000000
2015-10-08 00:31:51,0.02,0.88,0.00,20.47,25.94,29.55,14.83,47.87,1025.91,2042.00,3189.63,3062.04,3320.64,600.00,606.79,15.30,0000 0000 0000 0000 000000
2015-10-08 00:36:52,0.01,0.89,0.00,20.50,25.95,29.51,14.91,47.88,1025.91,2042.00,3189.02,3061.99,3320.03,600.00,606.63,15.35,0000 0000 0000 0000 000000
2015-10-08 00:41:53,0.03,0.89,0.00,20.53,25.95,29.51,14.88,47.74,1025.93,2042.00,3188.40,3061.45,3319.92,600.09,606.78,15.40,0000 0000 0000 0000 000000
2015-10-08 00:46:55,0.02,0.89,0.00,20.56,25.97,29.49,14.90,47.76,1026.04,2042.00,3187.93,3061.01,3319.12,599.98,606.62,15.45,0000 0000 0000 0000 000000
2015-10-08 00:51:56,0.07,0.89,0.00,20.58,25.97,29.49,14.80,47.68,1026.09,2042.00,3186.43,3060.35,3318.53,599.96,606.47,15.50,0000 0000 0000 0000 000000
2015-10-08 00:56:57,0.08,0.90,0.00,20.61,25.99,29.47,14.81,47.73,1026.14,2042.00,3184.25,3059.08,3317.22,599.86,606.44,15.55,0000 0000 0000 0000 000000
2015-10-08 01:01:59,0.07,0.90,0.00,20.63,26.00,29.48,14.90,47.83,1026.19,2042.00,3182.43,3058.10,3316.14,600.10,606.69,15.60,0000 0000 0000 0000 000000
2015-10-08 01:07:01,0.06,0.90,0.00,20.61,26.01,29.50,14.91,47.83,1026.26,2042.00,3181.28,3057.38,3315.33,600.05,606.64,15.65,0000 0000 0000 0000 000000
2015-10-08 01:12:01,0.06,0.90,0.00,20.61,26.02,29.54,14.83,47.77,1026.22,2042.00,3179.91,3056.67,3314.56,600.09,606.64,15.70,0000 0000 0000 0000 000000
2015-10-08 01:17:03,0.08,0.91,0.00,20.62,26.03,29.53,14.85,47.73,1026.24,2042.00,3177.97,3055.62,3313.33,599.96,606.50,15.75,0000 0000 0000 0000 000000
2015-10-08 01:22:04,0.06,0.91,0.00,20.64,26.05,29.53,14.89,47.68,1026.34,2041.98,3176.46,3054.68,3312.33,600.18,606.74,15.80,0000 0000 0000 0000 000000
2015-10-08 01:27:05,0.02,0.91,0.00,20.62,26.05,29.55,14.91,47.77,1026.36,2041.98,3175.56,3054.04,3311.95,600.07,606.61,15.85,0000 0000 0000 0000 000000
2015-10-08 01:32:07,0.05,0.92,0.00,20.62,26.07,29.57,14.89,47.77,1026.37,2041.98,3174.56,3053.53,3311.16,600.15,606.73,15.90,0000 0000 0000 0000 000000
2015-10-08 01:37:08,0.07,0.92,0.00,20.64,26.07,29.57,14.83,47.80,1026.38,2041.98,3172.98,3052.60,3310.19,599.90,606.37,15.95,0000 0000 0000 0000 000000
2015-10-08 01:42:09,0.04,0.92,0.00,20.65,26.09,29.59,14.78,47.77,1026.38,2041.97,3171.52,3051.99,3309.27,600.03,606.65,16.00,0000 0000 0000 0000 000000
2015-10-08 01:47:10,0.02,0.92,0.00,20.67,26.10,29.61,14.91,47.89,1026.38,2041.96,3170.97,3051.40,3308.98,599.87,606.48,16.05,0000 0000 0000 0000 000000
2015-10-08 01:52:12,0.06,0.93,0.00,20.64,26.11,29.65,14.87,47.83,1026.40,2041.97,3169.67,3050.64,3308.17,600.04,606.69,16.10,0000 0000 0000 0000 000000
2015-10-08 01:57:13,0.01,0.93,0.00,20.64,26.12,29.66,14.89,47.80,1026.46,2041.96,3168.99,3050.02,3307.55,599.83,606.30,16.15,0000 0000 0000 0000 000000
2015-10-08 02:02:14,0.02,0.93,0.00,20.67,26.12,29.64,14.79,47.68,1026.63,2041.95,3168.40,3049.99,3307.03,599.85,606.58,16.20,0000 0000 0000 0000 000000
2015-10-08 02:07:15,0.02,0.93,0.00,20.69,26.15,29.63,14.93,47.75,1026.81,2041.94,3167.99,3049.50,3306.89,600.20,606.85,16.25,0000 0000 0000 0000 000000
2015-10-08 02:12:16,0.01,0.93,0.00,20.70,26.15,29.67,14.86,47.69,1026.86,2041.77,3167.27,3049.01,3306.09,600.18,606.94,16.30,0000 0000 0000 0000 000000
2015-10-08 02:17:17,0.01,0.93,0.00,20.68,26.16,29.70,14.81,47.75,1026.86,2041.62,3166.94,3048.90,3305.96,599.76,606.56,16.35,0000 0000 0000 0000 000000
2015-10-08 02:22:18,0.02,0.93,0.00,20.67,26.17,29.73,14.87,47.78,1026.87,2041.53,3166.18,3048.18,3305.31,600.05,606.82,16.40,0000 0000 0000 0000 000000
2015-10-08 02:27:19,-0.01,0.93,0.00,20.69,26.17,29.70,14.87,47.73,1026.87,2041.32,3165.88,3047.99,3305.00,600.01,606.76,16.45,0000 0000 0000 0000 000000
2015-10-08 02:32:21,0.03,0.93,0.00,20.71,26.19,29.76,14.93,47.77,1026.88,2041.26,3165.12,3047.71,3304.57,600.01,606.67,16.50,0000 0000 0000 0000 000000
2015-10-08 02:37:22,0.01,0.94,0.00,20.74,26.20,29.76,14.85,47.80,1026.88,2041.10,3164.76,3047.04,3304.01,599.95,606.66,16.55,0000 0000 0000 0000 000000
2015-10-08 02:42:23,0.01,0.94,0.00,20.72,26.20,29.73,14.86,47.93,1026.88,2041.05,3164.04,3046.96,3303.75,600.03,606.72,16.60,0000 0000 0000 0000 000000
2015-10-08 02:47:25,0.04,0.94,0.00,20.72,26.21,29.76,14.90,47.83,1026.89,2041.10,3163.82,3046.53,3303.13,600.31,607.05,16.65,0000 0000 0000 0000 000000
2015-10-08 02:52:26,0.01,0.94,0.00,20.73,26.22,29.75,14.89,47.89,1026.90,2041.09,3163.08,3046.03,3302.99,600.09,606.82,16.70,0000 0000 0000 0000 000000
2015-10-08 02:57:27,0.02,0.94,0.00,20.76,26.22,29.78,14.90,47.98,1026.90,2041.04,3162.60,3045.93,3302.32,600.19,606.83,16.75,0000 0000 0000 0000 000000
2015-10-08 03:02:28,0.03,0.94,0.00,20.79,26.24,29.76,14.97,47.95,1026.89,2041.04,3162.02,3045.27,3302.00,600.27,606.80,16.80,0000 0000 0000 0000 000000
2015-10-08 03:07:30,0.02,0.94,0.00,20.79,26.25,29.79,14.91,47.78,1026.97,2041.01,3161.50,3045.00,3301.61,599.95,606.59,16.85,0000 0000 0000 0000 000000
2015-10-08 03:12:31,0.02,0.94,0.00,20.77,26.25,29.81,14.87,47.99,1027.11,2041.00,3161.00,3044.67,3301.02,600.14,606.90,16.90,0000 0000 0000 0000 000000
2015-10-08 03:17:33,0.03,0.95,0.00,20.78,26.26,29.77,14.89,47.92,1027.29,2041.00,3160.25,3044.03,3300.81,600.08,607.02,16.95,0000 0000 0000 0000 000000
2015-10-08 03:22:34,0.01,0.95,0.00,20.81,26.27,29.77,14.90,48.01,1027.36,2041.00,3159.99,3043.98,3300.11,599.88,606.80,17.00,0000 0000 0000 0000 000000
2015-10-08 03:27:35,0.03,0.95,0.00,20.84,26.27,29.77,14.88,47.92,1027.36,2041.00,3159.38,3043.49,3299.99,599.85,606.49,17.05,0000 0000 0000 0000 000000
2015-10-08 03:32:36,0.02,0.95,0.00,20.84,26.29,29.80,14.86,47.94,1027.36,2041.00,3158.97,3043.04,3299.42,599.90,606.66,17.10,0000 0000 0000 0000 000000
2015-10-08 03:37:38,0.02,0.95,0.00,20.83,26.30,29.79,14.94,47.95,1027.36,2041.00,3158.28,3042.93,3299.01,600.06,607.00,17.15,0000 0000 0000 0000 000000
2015-10-08 03:42:39,0.03,0.95,0.00,20.85,26.30,29.81,14.84,47.98,1027.36,2040.99,3157.92,3042.26,3298.68,599.94,606.63,17.20,0000 0000 0000 0000 000000
2015-10-08 03:47:40,0.02,0.95,0.00,20.88,26.32,29.82,14.91,47.97,1027.37,2040.99,3157.17,3042.00,3298.04,600.29,606.89,17.25,0000 0000 0000 0000 000000
2015-10-08 03:52:41,0.00,0.95,0.00,20.90,26.32,29.81,14.88,47.96,1027.38,2040.99,3156.99,3041.94,3297.98,599.90,606.55,17.30,0000 0000 0000 0000 000000
2015-10-08 03:57:42,0.05,0.96,0.00,20.89,26.33,29.81,14.92,47.93,1027.49,2040.99,3156.24,3041.18,3297.34,600.39,607.12,17.35,0000 0000 0000 0000 000000
2015-10-08 04:02:43,0.00,0.96,0.00,20.88,26.35,29.87,14.92,47.95,1027.70,2040.98,3155.98,3041.00,3297.00,600.16,607.05,17.40,0000 0000 0000 0000 000000
2015-10-08 04:07:44,0.03,0.96,0.00,20.89,26.35,29.87,14.84,48.00,1027.82,2040.98,3155.28,3040.77,3296.63,599.96,606.81,17.45,0000 0000 0000 0000 000000
2015-10-08 04:12:45,0.02,0.96,0.00,20.92,26.36,29.87,14.95,47.98,1027.84,2040.98,3154.98,3040.11,3296.04,600.20,607.02,17.50,0000 0000 0000 0000 000000
2015-10-08 04:17:47,0.01,0.96,0.00,20.92,26.37,29.84,14.82,47.96,1027.78,2040.95,3154.25,3040.00,3295.94,599.78,606.72,17.55,0000 0000 0000 0000 000000
2015-10-08 04:22:48,0.01,0.96,0.00,20.93,26.37,29.85,14.85,47.87,1027.82,2040.80,3153.88,3039.62,3295.19,599.83,606.77,17.60,0000 0000 0000 0000 000000
2015-10-08 04:27:49,0.03,0.96,0.00,20.96,26.40,29.85,14.89,47.88,1027.85,2040.82,3153.14,3039.06,3294.96,599.89,606.83,17.65,0000 0000 0000 0000 000000
2015-10-08 04:32:51,-0.00,0.96,0.00,20.95,26.40,29.86,14.90,47.91,1027.85,2040.63,3152.97,3038.97,3294.29,599.97,606.84,17.71,0000 0000 0000 0000 000000
2015-10-08 04:37:52,0.02,0.96,0.00,20.94,26.41,29.85,14.87,47.83,1027.85,2040.42,3152.27,3038.30,3294.00,600.12,606.94,17.76,0000 0000 0000 0000 000000
2015-10-08 04:42:53,0.00,0.96,0.00,20.97,26.42,29.88,14.83,47.88,1027.85,2040.32,3151.98,3038.01,3293.78,600.00,606.79,17.81,0000 0000 0000 0000 000000
2015-10-08 04:47:55,0.00,0.96,0.00,21.00,26.43,29.89,14.81,47.83,1027.85,2040.07,3151.21,3037.94,3293.05,599.79,606.58,17.86,0000 0000 0000 0000 000000
2015-10-08 04:52:56,0.02,0.96,0.00,21.02,26.45,29.91,14.90,47.95,1027.85,2040.09,3151.00,3037.35,3292.99,600.02,606.75,17.91,0000 0000 0000 0000 000000
2015-10-08 04:57:58,0.02,0.97,0.00,21.02,26.45,29.89,14.93,47.98,1027.86,2040.05,3150.54,3037.00,3292.31,600.29,607.15,17.96,0000 0000 0000 0000 000000
2015-10-08 05:02:59,0.01,0.97,0.00,21.03,26.47,29.92,14.84,47.88,1027.86,2040.02,3150.02,3036.93,3292.00,600.00,606.75,18.01,0000 0000 0000 0000 000000
2015-10-08 05:08:00,0.03,0.97,0.00,21.06,26.48,29.95,14.89,47.90,1027.86,2040.01,3149.71,3036.24,3291.74,600.27,606.88,18.06,0000 0000 0000 0000 000000
2015-10-08 05:13:01,0.02,0.97,0.00,21.08,26.50,29.92,14.86,47.85,1027.86,2040.00,3149.04,3036.00,3291.04,600.06,606.70,18.11,0000 0000 0000 0000 000000
2015-10-08 05:18:02,0.00,0.97,0.00,21.07,26.51,29.90,14.85,47.92,1027.86,2040.00,3148.86,3035.92,3290.98,599.75,606.39,18.16,0000 0000 0000 0000 000000
2015-10-08 05:23:04,0.04,0.97,0.00,21.10,26.52,29.96,14.83,47.90,1027.85,2040.00,3148.12,3035.39,3290.58,599.96,606.52,18.21,0000 0000 0000 0000 000000
2015-10-08 05:28:05,0.01,0.97,0.00,21.15,26.55,29.97,14.81,47.87,1027.86,2040.00,3147.93,3035.00,3290.00,600.02,606.55,18.26,0000 0000 0000 0000 000000
2015-10-08 05:33:06,0.02,0.97,0.00,21.17,26.56,29.99,14.91,47.80,1027.86,2040.00,3147.16,3034.83,3289.79,600.23,606.59,18.31,0000 0000 0000 0000 000000
2015-10-08 05:38:07,0.03,0.98,0.00,21.17,26.57,29.95,14.89,47.79,1027.86,2039.98,3146.87,3034.06,3289.05,600.14,606.61,18.36,0000 0000 0000 0000 000000
2015-10-08 05:43:09,0.01,0.98,0.00,21.18,26.59,29.96,14.85,47.71,1027.86,2039.97,3146.07,3033.98,3288.87,599.70,606.02,18.41,0000 0000 0000 0000 000000
2015-10-08 05:48:10,0.03,0.98,0.00,21.22,26.61,29.99,14.84,47.67,1027.86,2039.94,3145.93,3033.32,3288.09,600.16,606.53,18.46,0000 0000 0000 0000 000000
2015-10-08 05:53:11,0.00,0.98,0.00,21.23,26.62,29.99,14.88,47.61,1027.87,2039.83,3145.14,3033.01,3287.97,600.03,606.33,18.51,0000 0000 0000 0000 000000
2015-10-08 05:58:12,0.00,0.98,0.00,21.24,26.64,30.04,14.88,47.67,1027.92,2039.70,3144.97,3032.94,3287.40,600.09,606.51,18.56,0000 0000 0000 0000 000000
2015-10-08 06:03:13,0.00,0.98,0.00,21.26,26.65,30.04,14.80,47.73,1028.14,2039.36,3144.27,3032.23,3287.00,599.84,606.31,18.61,0000 0000 0000 0000 000000
2015-10-08 06:08:15,0.00,0.98,0.00,21.29,26.67,30.07,14.85,47.77,1028.33,2039.12,3143.96,3032.00,3286.70,600.23,606.51,18.66,0000 0000 0000 0000 000000
2015-10-08 06:13:16,0.02,0.98,0.00,21.29,26.69,30.07,14.82,47.79,1028.33,2039.07,3143.24,3031.84,3286.05,600.03,606.43,18.71,0000 0000 0000 0000 000000
2015-10-08 06:18:18,0.02,0.98,0.00,21.29,26.70,30.10,14.89,47.72,1028.33,2039.03,3142.95,3031.11,3285.88,600.02,606.29,18.76,0000 0000 0000 0000 000000
2015-10-08 06:23:19,0.02,0.98,0.00,21.32,26.72,30.12,14.84,47.88,1028.33,2039.01,3142.19,3030.98,3285.12,599.91,606.23,18.81,0000 0000 0000 0000 000000
2015-10-08 06:28:20,0.02,0.98,0.00,21.33,26.72,30.13,14.75,47.78,1028.34,2039.00,3141.84,3030.33,3284.96,599.99,606.38,18.86,0000 0000 0000 0000 000000
2015-10-08 06:33:21,0.03,0.99,0.00,21.32,26.75,30.16,14.80,47.81,1028.34,2038.99,3141.08,3030.01,3284.19,599.94,606.28,18.91,0000 0000 0000 0000 000000
2015-10-08 06:38:22,0.01,0.99,0.00,21.35,26.75,30.15,14.87,47.63,1028.34,2038.99,3140.84,3029.92,3284.00,600.22,606.53,18.96,0000 0000 0000 0000 000000
2015-10-08 06:43:24,0.04,0.99,0.00,21.61,26.77,30.00,14.86,47.63,1028.34,2038.98,3140.10,3029.21,3283.48,600.57,606.37,19.01,0000 0000 0000 0000 000000
2015-10-08 06:48:25,0.01,0.99,0.00,21.80,26.80,29.95,14.69,47.60,1028.34,2038.97,3139.75,3028.99,3283.01,599.65,604.87,19.06,0000 0000 0000 0000 000000
2015-10-08 06:53:26,0.04,0.99,0.00,21.65,26.82,30.02,14.77,47.52,1028.34,2038.92,3139.03,3028.39,3282.39,599.83,605.48,19.11,0000 0000 0000 0000 000000
2015-10-08 06:58:28,-0.01,0.99,0.00,21.59,26.83,30.05,14.84,47.37,1028.36,2038.67,3138.41,3028.01,3281.99,600.14,605.79,19.16,0000 0000 0000 0000 000000
2015-10-08 07:03:29,-0.01,0.99,0.00,21.55,26.85,30.07,14.74,47.41,1028.42,2038.24,3137.96,3027.76,3281.37,599.81,605.81,19.21,0000 0000 0000 0000 000000
2015-10-08 07:08:30,0.03,0.99,0.00,21.51,26.86,30.12,14.88,47.40,1028.46,2038.23,3137.20,3027.09,3281.01,599.90,606.16,19.26,0000 0000 0000 0000 000000
2015-10-08 07:13:31,0.01,0.99,0.00,21.49,26.87,30.17,14.84,47.42,1028.60,2038.18,3136.72,3026.97,3280.68,599.87,606.02,19.31,0000 0000 0000 0000 000000
2015-10-08 07:18:33,0.03,0.99,0.00,21.47,26.88,30.17,14.78,47.51,1028.73,2038.07,3136.03,3026.39,3280.04,600.03,606.35,19.36,0000 0000 0000 0000 000000
2015-10-08 07:23:34,0.01,1.00,0.00,21.44,26.89,30.22,14.82,47.44,1028.80,2038.04,3135.64,3026.01,3279.85,599.92,606.35,19.41,0000 0000 0000 0000 000000
2015-10-08 07:28:35,0.02,1.00,0.00,21.44,26.90,30.27,14.87,47.47,1028.82,2038.02,3135.03,3025.90,3279.13,599.65,605.93,19.46,0000 0000 0000 0000 000000
2015-10-08 07:33:36,0.02,1.00,0.00,21.44,26.90,30.31,14.94,47.48,1028.82,2038.00,3134.80,3025.13,3278.98,600.42,606.77,19.51,0000 0000 0000 0000 000000
2015-10-08 07:38:37,0.02,1.00,0.00,21.42,26.90,30.34,14.86,47.61,1028.82,2038.01,3134.06,3025.00,3278.44,599.83,606.07,19.56,0000 0000 0000 0000 000000
2015-10-08 07:43:39,0.03,1.00,0.00,21.41,26.90,30.37,14.91,47.58,1028.82,2038.00,3133.58,3024.62,3278.00,600.31,606.82,19.61,0000 0000 0000 0000 000000
2015-10-08 07:48:40,0.02,1.00,0.00,21.50,26.90,30.27,14.85,47.47,1028.82,2038.00,3133.01,3024.05,3277.61,600.00,606.37,19.66,0000 0000 0000 0000 000000
2015-10-08 07:53:41,0.01,1.00,0.00,21.85,26.92,30.10,14.79,47.35,1028.84,2038.00,3132.34,3023.99,3277.01,599.77,605.32,19.71,0000 0000 0000 0000 000000
2015-10-08 07:58:43,0.03,1.00,0.00,21.77,26.93,30.09,14.85,47.30,1028.86,2038.00,3132.00,3023.52,3276.71,600.03,605.71,19.76,0000 0000 0000 0000 000000
2015-10-08 08:03:44,0.02,1.01,0.00,21.65,26.95,30.15,14.72,47.42,1028.87,2038.00,3131.42,3023.02,3276.06,599.93,605.85,19.81,0000 0000 0000 0000 000000
2015-10-08 08:08:45,0.00,1.01,0.00,21.61,26.95,30.19,14.66,47.37,1028.88,2038.00,3130.99,3022.96,3275.99,599.82,605.84,19.86,0000 0000 0000 0000 000000
2015-10-08 08:13:47,0.05,1.01,0.00,21.56,26.95,30.19,14.86,47.42,1028.93,2038.00,3130.25,3022.31,3275.44,599.97,606.21,19.91,0000 0000 0000 0000 000000
2015-10-08 08:18:48,0.00,1.01,0.00,21.51,26.95,30.24,14.80,47.45,1028.92,2038.00,3129.88,3022.01,3275.00,599.85,606.16,19.96,0000 0000 0000 0000 000000
2015-10-08 08:23:50,0.04,1.01,0.00,21.48,26.96,30.28,14.90,47.48,1029.00,2038.00,3129.09,3021.73,3274.62,600.03,606.37,20.01,0000 0000 0000 0000 000000
2015-10-08 08:28:51,0.03,1.01,0.00,21.47,26.97,30.31,14.83,47.42,1029.22,2037.99,3128.33,3021.05,3274.02,600.03,606.57,20.06,0000 0000 0000 0000 000000
2015-10-08 08:33:52,0.06,1.02,0.00,21.46,26.97,30.37,14.86,47.48,1029.28,2037.99,3127.17,3020.42,3273.27,600.20,606.74,20.11,0000 0000 0000 0000 000000
2015-10-08 08:38:54,0.29,1.02,0.00,21.42,26.97,30.40,14.89,47.70,1029.29,2037.98,3122.37,3017.91,3270.56,599.96,606.77,20.16,0000 0000 0000 0000 000000
2015-10-08 08:43:55,0.34,1.04,0.00,21.41,26.97,30.43,14.81,47.58,1029.30,2037.98,3113.03,3012.86,3265.17,599.83,606.62,20.21,0000 0000 0000 0000 000000
2015-10-08 08:48:56,0.10,1.05,0.00,21.42,26.97,30.46,14.89,47.46,1029.31,2037.98,3109.15,3010.88,3263.03,599.97,606.68,20.26,0000 0000 0000 0000 000000
2015-10-08 08:53:58,0.11,1.06,0.00,21.39,26.97,30.48,14.92,47.50,1029.31,2037.98,3107.07,3009.64,3261.91,600.40,607.23,20.31,0000 0000 0000 0000 000000
2015-10-08 08:58:59,0.09,1.06,0.00,21.38,26.97,30.44,14.91,47.70,1029.31,2037.97,3104.68,3008.47,3260.54,599.97,606.76,20.36,0000 0000 0000 0000 000000
2015-10-08 09:04:00,0.03,1.07,0.00,21.65,26.98,30.22,14.86,47.58,1029.31,2037.96,3103.30,3007.88,3259.76,600.30,606.53,20.41,0000 0000 0000 0000 000000
2015-10-08 09:09:01,0.04,1.07,0.00,21.83,27.00,30.14,14.79,47.43,1029.31,2037.91,3102.44,3007.11,3259.04,599.92,605.84,20.46,0000 0000 0000 0000 000000
2015-10-08 09:14:03,0.01,1.07,0.00,21.68,27.00,30.18,14.82,47.49,1029.32,2037.89,3101.79,3006.98,3258.64,600.17,606.35,20.51,0000 0000 0000 0000 000000
2015-10-08 09:19:04,0.01,1.07,0.00,21.59,27.00,30.23,14.82,47.59,1029.32,2037.57,3100.99,3006.30,3258.01,599.85,606.23,20.56,0000 0000 0000 0000 000000
2015-10-08 09:24:05,0.03,1.07,0.00,21.52,27.01,30.26,14.86,47.59,1029.32,2037.42,3100.13,3006.00,3257.49,600.28,606.79,20.61,0000 0000 0000 0000 000000
2015-10-08 09:29:06,0.01,1.07,0.00,21.48,27.00,30.30,14.78,47.57,1029.33,2037.45,3099.79,3005.61,3257.01,599.67,606.28,20.66,0000 0000 0000 0000 000000
2015-10-08 09:34:07,0.02,1.07,0.00,21.45,27.00,30.34,14.87,47.48,1029.33,2037.28,3099.06,3005.04,3256.68,600.21,606.87,20.71,0000 0000 0000 0000 000000
2015-10-08 09:39:08,0.00,1.07,0.00,21.43,27.00,30.37,14.87,47.48,1029.34,2037.15,3098.62,3004.97,3256.02,600.14,606.86,20.76,0000 0000 0000 0000 000000
2015-10-08 09:44:09,0.03,1.07,0.00,21.40,27.00,30.41,14.87,47.56,1029.34,2037.09,3097.95,3004.29,3255.72,599.64,606.52,20.81,0000 0000 0000 0000 000000
2015-10-08 09:49:10,0.02,1.08,0.00,21.37,27.00,30.54,14.83,47.55,1029.34,2037.04,3097.12,3004.00,3255.03,599.67,606.51,20.86,0000 0000 0000 0000 000000
2015-10-08 09:54:11,0.03,1.08,0.00,21.36,26.97,30.54,14.88,47.61,1029.33,2037.13,3096.65,3003.83,3254.90,600.07,606.91,20.91,0000 0000 0000 0000 000000
2015-10-08 09:59:13,0.06,1.08,0.00,21.34,26.97,30.56,14.78,47.67,1029.33,2037.24,3095.87,3003.13,3254.19,599.55,606.39,20.96,0000 0000 0000 0000 000000
2015-10-08 10:04:14,0.03,1.08,0.00,21.31,26.97,30.57,14.84,47.63,1029.32,2037.33,3095.07,3002.97,3253.97,599.75,606.68,21.01,0000 0000 0000 0000 000000
2015-10-08 10:09:15,0.04,1.08,0.00,21.31,26.95,30.62,14.86,47.66,1029.31,2037.38,3094.54,3002.38,3253.26,599.77,606.84,21.06,0000 0000 0000 0000 000000
2015-10-08 10:14:16,0.02,1.08,0.00,21.29,26.95,30.53,14.89,47.64,1029.32,2037.44,3093.89,3002.01,3253.00,599.86,606.81,21.11,0000 0000 0000 0000 000000
2015-10-08 10:19:18,0.06,1.09,0.00,21.27,26.95,30.56,14.89,47.68,1029.36,2037.91,3093.11,3001.96,3252.74,600.03,607.07,21.16,0000 0000 0000 0000 000000
2015-10-08 10:24:19,0.04,1.09,0.00,21.26,26.93,30.58,14.88,47.71,1029.43,2037.94,3092.63,3001.22,3252.05,599.92,607.02,21.21,0000 0000 0000 0000 000000
2015-10-08 10:29:20,0.01,1.09,0.00,21.28,26.92,30.54,14.87,47.72,1029.38,2037.96,3092.02,3001.00,3251.96,599.96,607.03,21.26,0000 0000 0000 0000 000000
2015-10-08 10:34:22,0.03,1.09,0.00,21.34,26.92,30.35,14.94,47.68,1029.34,2037.97,3091.58,3000.86,3251.21,600.33,607.20,21.32,0000 0000 0000 0000 000000
2015-10-08 10:39:23,0.03,1.09,0.00,21.34,26.92,30.23,14.77,47.66,1029.35,2037.94,3091.01,3000.10,3250.95,599.75,606.74,21.37,0000 0000 0000 0000 000000
2015-10-08 10:44:25,0.01,1.10,0.00,21.38,26.93,30.17,14.83,47.69,1029.37,2037.82,3090.60,3000.00,3250.21,599.86,606.72,21.42,0000 0000 0000 0000 000000
2015-10-08 10:49:26,0.04,1.10,0.00,21.38,26.95,30.19,14.88,47.61,1029.36,2037.80,3089.90,2999.46,3249.98,599.95,606.77,21.47,0000 0000 0000 0000 000000
2015-10-08 10:54:27,0.03,1.10,0.00,21.35,26.95,30.21,14.91,47.64,1029.35,2037.81,3089.11,2999.01,3249.27,600.09,606.85,21.52,0000 0000 0000 0000 000000
2015-10-08 10:59:28,0.03,1.10,0.00,21.30,26.95,30.33,14.94,47.76,1029.33,2037.82,3088.47,2998.80,3249.00,600.10,606.94,21.57,0000 0000 0000 0000 000000
2015-10-08 11:04:30,0.04,1.10,0.00,21.29,26.95,30.38,14.83,47.65,1029.35,2037.89,3087.92,2998.09,3248.36,600.14,607.10,21.62,0000 0000 0000 0000 000000
2015-10-08 11:09:31,0.01,1.10,0.00,21.28,26.95,30.44,14.89,47.67,1029.40,2037.88,3087.17,2997.99,3248.00,600.11,607.16,21.67,0000 0000 0000 0000 000000
2015-10-08 11:14:32,0.04,1.10,0.00,21.25,26.95,30.44,14.91,47.67,1029.37,2037.84,3086.68,2997.42,3247.47,600.07,607.16,21.72,0000 0000 0000 0000 000000
2015-10-08 11:19:33,0.01,1.11,0.00,21.22,26.93,30.55,14.81,47.66,1029.34,2037.75,3086.01,2997.01,3247.00,599.98,607.14,21.77,0000 0000 0000 0000 000000
2015-10-08 11:24:34,0.03,1.11,0.00,21.22,26.92,30.57,14.88,47.68,1029.33,2037.88,3085.66,2996.97,3246.61,600.26,607.38,21.82,0000 0000 0000 0000 000000
2015-10-08 11:29:36,0.04,1.11,0.00,21.22,26.92,30.57,14.90,47.74,1029.33,2037.88,3085.02,2996.47,3246.04,599.77,606.87,21.87,0000 0000 0000 0000 000000
2015-10-08 11:34:37,0.02,1.11,0.00,21.21,26.91,30.53,14.91,47.77,1029.39,2037.94,3084.37,2996.03,3245.97,599.85,607.02,21.92,0000 0000 0000 0000 000000
2015-10-08 11:39:38,0.03,1.11,0.00,21.19,26.90,30.59,14.95,47.77,1029.59,2037.97,3083.73,2995.89,3245.26,600.20,607.54,21.97,0000 0000 0000 0000 000000
2015-10-08 11:44:39,0.03,1.11,0.00,21.19,26.90,30.60,14.93,47.80,1029.65,2037.98,3083.02,2995.25,3245.00,600.08,607.48,22.02,0000 0000 0000 0000 000000
2015-10-08 11:49:41,0.02,1.12,0.00,21.17,26.88,30.55,14.95,47.73,1029.74,2037.98,3082.29,2994.99,3244.48,599.87,607.34,22.07,0000 0000 0000 0000 000000
2015-10-08 11:54:41,0.02,1.12,0.00,21.14,26.87,30.54,14.92,47.81,1029.77,2037.99,3081.87,2994.65,3244.01,600.19,607.76,22.12,0000 0000 0000 0000 000000
2015-10-08 11:59:43,0.03,1.12,0.00,21.14,26.87,30.54,14.85,47.82,1029.76,2037.99,3081.09,2994.03,3243.67,599.57,607.12,22.17,0000 0000 0000 0000 000000
2015-10-08 12:04:44,0.02,1.12,0.00,21.14,26.87,30.49,14.96,47.77,1029.79,2037.99,3080.44,2993.91,3243.02,600.10,607.59,22.22,0000 0000 0000 0000 000000
2015-10-08 12:09:45,0.04,1.12,0.00,21.10,26.85,30.54,14.84,47.75,1029.80,2037.99,3079.80,2993.14,3242.71,600.01,607.61,22.27,0000 0000 0000 0000 000000
2015-10-08 12:14:47,0.02,1.12,0.00,21.09,26.85,30.53,14.85,47.82,1029.80,2037.99,3079.04,2992.98,3242.04,599.98,607.70,22.32,0000 0000 0000 0000 000000
2015-10-08 12:19:48,0.04,1.12,0.00,21.10,26.85,30.50,14.92,47.89,1029.80,2037.99,3078.45,2992.57,3241.76,599.97,607.59,22.37,0000 0000 0000 0000 000000
2015-10-08 12:24:49,0.02,1.13,0.00,21.09,26.85,30.47,14.90,47.82,1029.80,2037.99,3077.80,2992.02,3241.07,599.83,607.58,22.42,0000 0000 0000 0000 000000
2015-10-08 12:29:50,0.02,1.13,0.00,21.07,26.83,30.46,14.88,47.89,1029.80,2037.99,3076.95,2991.87,3240.80,599.63,607.32,22.47,0000 0000 0000 0000 000000
2015-10-08 12:34:51,0.05,1.13,0.00,21.07,26.82,30.46,14.94,47.66,1029.80,2038.01,3076.02,2991.07,3240.04,600.13,607.87,22.52,0000 0000 0000 0000 000000
2015-10-08 12:39:53,0.05,1.13,0.00,21.09,26.82,30.44,14.90,47.82,1029.80,2038.02,3075.07,2990.66,3239.42,600.33,607.93,22.57,0000 0000 0000 0000 000000
2015-10-08 12:44:54,0.03,1.13,0.00,21.07,26.82,30.45,14.90,47.81,1029.80,2038.01,3074.11,2990.01,3238.75,599.90,607.65,22.62,0000 0000 0000 0000 000000
2015-10-08 12:49:55,0.05,1.14,0.00,21.04,26.82,30.48,14.91,47.90,1029.80,2038.02,3073.20,2989.41,3238.03,600.26,607.91,22.67,0000 0000 0000 0000 000000
2015-10-08 12:54:57,0.03,1.14,0.00,21.06,26.80,30.46,14.93,47.83,1029.80,2038.03,3072.29,2988.98,3237.46,600.09,607.71,22.72,0000 0000 0000 0000 000000